| time (UTC) | temp C | wind direction | speed KPH | gust KPH | rain 1hr cm | rain 24hr cm | rain mn cm | humidity % | barometer mb |
| 20260505092141 | 14 | 69 | 0.0 | 1.6 | 0.00 | 0.00 | 0.00 | 73 | 1008.2 |
| 20260505091637 | 14 | 64 | 3.2 | 3.2 | 0.00 | 0.00 | 0.00 | 75 | 1008.2 |
| 20260505091135 | 13 | 119 | 1.6 | 1.6 | 0.00 | 0.00 | 0.00 | 76 | 1008.0 |
| 20260505090632 | 13 | 127 | 1.6 | 3.2 | 0.00 | 0.00 | 0.00 | 76 | 1008.1 |
| 20260505090131 | 13 | 71 | 0.0 | 3.2 | 0.00 | 0.00 | 0.00 | 78 | 1008.1 |
| 20260505085628 | 13 | 63 | 0.0 | 0.0 | 0.00 | 0.00 | 0.00 | 77 | 1008.1 |
| 20260505085126 | 13 | 73 | 0.0 | 0.0 | 0.00 | 0.00 | 0.00 | 76 | 1008.3 |
| 20260505084623 | 13 | 88 | 0.0 | 1.6 | 0.00 | 0.00 | 0.00 | 77 | 1008.1 |
| 20260505084122 | 13 | 106 | 0.0 | 1.6 | 0.00 | 0.00 | 0.00 | 76 | 1008.2 |
| 20260505083619 | 13 | 46 | 0.0 | 0.0 | 0.00 | 0.00 | 0.00 | 76 | 1008.1 |
| 20260505083115 | 13 | 89 | 0.0 | 1.6 | 0.00 | 0.00 | 0.00 | 76 | 1008.3 |
| 20260505082611 | 13 | 98 | 0.0 | 0.0 | 0.00 | 0.00 | 0.00 | 75 | 1008.1 |
| 20260505082108 | 13 | 91 | 0.0 | 0.0 | 0.00 | 0.00 | 0.00 | 75 | 1008.2 |
| 20260505081604 | 13 | 44 | 0.0 | 0.0 | 0.00 | 0.00 | 0.00 | 74 | 1008.2 |
| 20260505081102 | 14 | 101 | 0.0 | 1.6 | 0.00 | 0.00 | 0.00 | 73 | 1008.0 |
| 20260505080557 | 14 | 69 | 0.0 | 0.0 | 0.00 | 0.00 | 0.00 | 73 | 1008.0 |
| 20260505080055 | 14 | 78 | 0.0 | 0.0 | 0.00 | 0.00 | 0.00 | 72 | 1007.8 |
| 20260505075550 | 15 | 59 | 0.0 | 0.0 | 0.00 | 0.00 | 0.00 | 72 | 1008.2 |
| 20260505075047 | 15 | 73 | 0.0 | 1.6 | 0.00 | 0.00 | 0.00 | 72 | 1008.1 |
| 20260505074544 | 15 | 132 | 1.6 | 1.6 | 0.00 | 0.00 | 0.00 | 72 | 1008.4 |
| 20260505074042 | 15 | 79 | 0.0 | 1.6 | 0.00 | 0.00 | 0.00 | 72 | 1008.3 |
| 20260505073539 | 15 | 71 | 0.0 | 1.6 | 0.00 | 0.00 | 0.00 | 72 | 1008.3 |
| 20260505073038 | 14 | 125 | 1.6 | 1.6 | 0.00 | 0.00 | 0.00 | 72 | 1008.3 |
| 20260505072532 | 14 | 83 | 0.0 | 3.2 | 0.00 | 0.00 | 0.00 | 72 | 1008.1 |
| 20260505072029 | 14 | 82 | 0.0 | 0.0 | 0.00 | 0.00 | 0.00 | 71 | 1008.1 |
| 20260505071525 | 15 | 73 | 0.0 | 1.6 | 0.00 | 0.00 | 0.00 | 71 | 1008.1 |
| 20260505071023 | 15 | 94 | 0.0 | 1.6 | 0.00 | 0.00 | 0.00 | 71 | 1008.2 |
| 20260505070520 | 15 | 65 | 0.0 | 3.2 | 0.00 | 0.00 | 0.00 | 70 | 1008.3 |
| 20260505070016 | 15 | 64 | 0.0 | 0.0 | 0.00 | 0.00 | 0.00 | 70 | 1008.3 |
| 20260505065512 | 15 | 68 | 0.0 | 0.0 | 0.00 | 0.00 | 0.00 | 70 | 1008.2 |
| 20260505065009 | 15 | 83 | 0.0 | 1.6 | 0.00 | 0.00 | 0.00 | 70 | 1008.1 |
| 20260505064506 | 15 | 98 | 1.6 | 1.6 | 0.00 | 0.00 | 0.00 | 70 | 1007.8 |
| 20260505064004 | 15 | 359 | 3.2 | 3.2 | 0.00 | 0.00 | 0.00 | 70 | 1008.3 |
| 20260505063501 | 15 | 75 | 0.0 | 1.6 | 0.00 | 0.00 | 0.00 | 70 | 1007.9 |
| 20260505062957 | 15 | 82 | 0.0 | 1.6 | 0.00 | 0.00 | 0.00 | 69 | 1007.9 |
| 20260505062454 | 15 | 4 | 1.6 | 3.2 | 0.00 | 0.00 | 0.00 | 69 | 1008.1 |
| 20260505061951 | 15 | 63 | 1.6 | 1.6 | 0.00 | 0.00 | 0.00 | 69 | 1008.1 |
| 20260505061449 | 15 | 59 | 0.0 | 0.0 | 0.00 | 0.00 | 0.00 | 68 | 1008.0 |
| 20260505060946 | 15 | 72 | 0.0 | 4.8 | 0.00 | 0.00 | 0.00 | 68 | 1008.0 |
| 20260505060443 | 15 | 150 | 3.2 | 4.8 | 0.00 | 0.00 | 0.00 | 68 | 1007.8 |
| 20260505055939 | 15 | 87 | 0.0 | 3.2 | 0.00 | 0.00 | 0.00 | 68 | 1007.9 |
| 20260505055435 | 15 | 102 | 1.6 | 1.6 | 0.00 | 0.00 | 0.00 | 67 | 1007.7 |
| 20260505054932 | 15 | 64 | 1.6 | 3.2 | 0.00 | 0.00 | 0.00 | 67 | 1007.9 |
| 20260505054430 | 15 | 90 | 0.0 | 1.6 | 0.00 | 0.00 | 0.00 | 66 | 1008.1 |
| 20260505053927 | 15 | 69 | 3.2 | 4.8 | 0.00 | 0.00 | 0.00 | 65 | 1008.0 |
| 20260505053424 | 15 | 104 | 0.0 | 4.8 | 0.00 | 0.00 | 0.00 | 64 | 1008.1 |
| 20260505052921 | 15 | 18 | 1.6 | 3.2 | 0.00 | 0.00 | 0.00 | 64 | 1008.0 |
| 20260505052418 | 15 | 111 | 0.0 | 3.2 | 0.00 | 0.00 | 0.00 | 65 | 1008.2 |
| 20260505051915 | 15 | 114 | 1.6 | 1.6 | 0.00 | 0.00 | 0.00 | 65 | 1008.1 |
| 20260505051412 | 15 | 123 | 0.0 | 1.6 | 0.00 | 0.00 | 0.00 | 64 | 1008.3 |
| 20260505050910 | 15 | 223 | 4.8 | 4.8 | 0.00 | 0.00 | 0.00 | 64 | 1008.1 |
| 20260505050409 | 15 | 70 | 1.6 | 1.6 | 0.00 | 0.00 | 0.00 | 63 | 1008.3 |
| 20260505041336 | 16 | 353 | 0.0 | 1.6 | 0.00 | 0.00 | 0.00 | 61 | 1008.0 |
| 20260505040833 | 16 | 96 | 0.0 | 1.6 | 0.00 | 0.00 | 0.00 | 61 | 1008.1 |
| 20260505040331 | 16 | 34 | 1.6 | 3.2 | 0.00 | 0.00 | 0.00 | 60 | 1007.8 |
| 20260505035827 | 15 | 73 | 0.0 | 3.2 | 0.00 | 0.00 | 0.00 | 60 | 1008.0 |
| 20260505035323 | 16 | 68 | 0.0 | 0.0 | 0.00 | 0.00 | 0.00 | 59 | 1007.9 |
| 20260505034821 | 16 | 51 | 0.0 | 1.6 | 0.00 | 0.00 | 0.00 | 58 | 1008.2 |
| 20260505034317 | 16 | 68 | 3.2 | 4.8 | 0.00 | 0.00 | 0.00 | 58 | 1007.9 |
| 20260505033814 | 15 | 105 | 1.6 | 4.8 | 0.00 | 0.00 | 0.00 | 58 | 1008.0 |
| 20260505033311 | 16 | 73 | 0.0 | 1.6 | 0.00 | 0.00 | 0.00 | 55 | 1007.9 |
| 20260505032809 | 16 | 16 | 0.0 | 1.6 | 0.00 | 0.00 | 0.00 | 54 | 1007.9 |
| 20260505032305 | 16 | 31 | 0.0 | 1.6 | 0.00 | 0.00 | 0.00 | 52 | 1007.9 |
| 20260505031802 | 16 | 124 | 1.6 | 4.8 | 0.00 | 0.00 | 0.00 | 52 | 1008.1 |
| 20260505031259 | 16 | 90 | 0.0 | 4.8 | 0.00 | 0.00 | 0.00 | 52 | 1008.2 |
| 20260505030756 | 16 | 73 | 0.0 | 1.6 | 0.00 | 0.00 | 0.00 | 52 | 1008.2 |
| 20260505030252 | 16 | 86 | 0.0 | 1.6 | 0.00 | 0.00 | 0.00 | 52 | 1008.0 |
| 20260505025747 | 16 | 71 | 0.0 | 1.6 | 0.00 | 0.00 | 0.00 | 51 | 1008.3 |
| 20260505025246 | 16 | 105 | 0.0 | 0.0 | 0.00 | 0.00 | 0.00 | 51 | 1008.3 |
| 20260505024743 | 16 | 34 | 0.0 | 0.0 | 0.00 | 0.00 | 0.00 | 51 | 1008.4 |
| 20260505024240 | 16 | 70 | 0.0 | 1.6 | 0.00 | 0.00 | 0.00 | 51 | 1008.2 |
| 20260505023738 | 16 | 67 | 0.0 | 3.2 | 0.00 | 0.00 | 0.00 | 51 | 1008.2 |
| 20260505023235 | 16 | 127 | 1.6 | 1.6 | 0.00 | 0.00 | 0.00 | 52 | 1008.4 |
| 20260505022732 | 16 | 77 | 0.0 | 1.6 | 0.00 | 0.00 | 0.00 | 52 | 1008.4 |
| 20260505022229 | 16 | 82 | 1.6 | 3.2 | 0.00 | 0.00 | 0.00 | 52 | 1008.5 |
| 20260505021726 | 16 | 123 | 1.6 | 1.6 | 0.00 | 0.00 | 0.00 | 52 | 1008.6 |
| 20260505021223 | 16 | 81 | 0.0 | 1.6 | 0.00 | 0.00 | 0.00 | 52 | 1008.3 |
| 20260505020718 | 16 | 103 | 0.0 | 1.6 | 0.00 | 0.00 | 0.00 | 51 | 1008.6 |
| 20260505020214 | 16 | 133 | 0.0 | 1.6 | 0.00 | 0.00 | 0.00 | 51 | 1008.1 |
| 20260505015712 | 17 | 110 | 0.0 | 1.6 | 0.00 | 0.00 | 0.00 | 51 | 1008.3 |
| 20260505015209 | 17 | 38 | 0.0 | 3.2 | 0.00 | 0.00 | 0.00 | 50 | 1008.2 |
| 20260505014705 | 17 | 86 | 0.0 | 1.6 | 0.00 | 0.00 | 0.00 | 50 | 1008.3 |
| 20260505014203 | 17 | 96 | 1.6 | 1.6 | 0.00 | 0.00 | 0.00 | 51 | 1008.1 |
| 20260505013700 | 17 | 130 | 0.0 | 1.6 | 0.00 | 0.00 | 0.00 | 50 | 1008.2 |
| 20260505013157 | 16 | 56 | 0.0 | 3.2 | 0.00 | 0.00 | 0.00 | 52 | 1008.4 |
| 20260505012655 | 17 | 145 | 0.0 | 1.6 | 0.00 | 0.00 | 0.00 | 51 | 1008.4 |
| 20260505012152 | 17 | 104 | 0.0 | 0.0 | 0.00 | 0.00 | 0.00 | 50 | 1008.3 |
| 20260505011652 | 16 | 124 | 1.6 | 3.2 | 0.00 | 0.00 | 0.00 | 51 | 1008.1 |
| 20260505011150 | 16 | 79 | 0.0 | 0.0 | 0.00 | 0.00 | 0.00 | 51 | 1008.3 |
| 20260505010645 | 16 | 119 | 1.6 | 1.6 | 0.00 | 0.00 | 0.00 | 50 | 1008.0 |
| 20260505010142 | 17 | 77 | 0.0 | 0.0 | 0.00 | 0.00 | 0.00 | 50 | 1008.0 |
| 20260505005638 | 17 | 120 | 0.0 | 1.6 | 0.00 | 0.00 | 0.00 | 49 | 1008.0 |
| 20260505005135 | 17 | 99 | 0.0 | 0.0 | 0.00 | 0.00 | 0.00 | 47 | 1007.9 |
| 20260505004632 | 17 | 85 | 0.0 | 0.0 | 0.00 | 0.00 | 0.00 | 47 | 1007.8 |
| 20260505004129 | 17 | 112 | 0.0 | 1.6 | 0.00 | 0.00 | 0.00 | 47 | 1007.8 |
| 20260505003626 | 17 | 96 | 0.0 | 1.6 | 0.00 | 0.00 | 0.00 | 46 | 1007.7 |
| 20260505003124 | 17 | 101 | 0.0 | 1.6 | 0.00 | 0.00 | 0.00 | 46 | 1007.8 |
| 20260505002619 | 17 | 89 | 0.0 | 1.6 | 0.00 | 0.00 | 0.00 | 46 | 1007.7 |
| 20260505002118 | 17 | 125 | 0.0 | 1.6 | 0.00 | 0.00 | 0.00 | 44 | 1007.5 |
| 20260505001615 | 17 | 100 | 1.6 | 1.6 | 0.00 | 0.00 | 0.00 | 46 | 1007.6 |
| 20260505001113 | 18 | 86 | 0.0 | 0.0 | 0.00 | 0.00 | 0.00 | 44 | 1007.7 |
| 20260505000609 | 18 | 117 | 0.0 | 1.6 | 0.00 | 0.00 | 0.00 | 44 | 1007.6 |
| 20260505000107 | 18 | 113 | 1.6 | 1.6 | 0.00 | 0.00 | 0.00 | 42 | 1007.5 |
| 20260504235603 | 18 | 114 | 1.6 | 3.2 | 0.00 | 0.00 | 0.00 | 43 | 1007.6 |
| 20260504235100 | 18 | 114 | 1.6 | 1.6 | 0.00 | 0.00 | 0.00 | 42 | 1007.4 |
| 20260504234557 | 19 | 103 | 1.6 | 1.6 | 0.00 | 0.00 | 0.00 | 41 | 1007.5 |
| 20260504234054 | 19 | 101 | 0.0 | 1.6 | 0.00 | 0.00 | 0.00 | 41 | 1007.2 |
| 20260504233549 | 20 | 108 | 1.6 | 3.2 | 0.00 | 0.00 | 0.00 | 40 | 1007.4 |
| 20260504233046 | 20 | 162 | 1.6 | 4.8 | 0.00 | 0.00 | 0.00 | 39 | 1007.4 |
| 20260504232543 | 20 | 90 | 1.6 | 3.2 | 0.00 | 0.00 | 0.00 | 39 | 1007.3 |
| 20260504232041 | 20 | 199 | 3.2 | 4.8 | 0.00 | 0.00 | 0.00 | 38 | 1007.3 |
| 20260504231537 | 20 | 183 | 1.6 | 9.7 | 0.00 | 0.00 | 0.00 | 39 | 1007.4 |
| 20260504231033 | 20 | 97 | 0.0 | 3.2 | 0.00 | 0.00 | 0.00 | 37 | 1007.2 |
| 20260504230530 | 20 | 113 | 1.6 | 3.2 | 0.00 | 0.00 | 0.00 | 36 | 1007.5 |
| 20260504230029 | 21 | 227 | 1.6 | 9.7 | 0.00 | 0.00 | 0.00 | 38 | 1007.0 |
| 20260504225526 | 21 | 192 | 4.8 | 6.4 | 0.00 | 0.00 | 0.00 | 35 | 1007.3 |
| 20260504225023 | 21 | 110 | 1.6 | 4.8 | 0.00 | 0.00 | 0.00 | 34 | 1007.2 |
| 20260504224519 | 21 | 163 | 3.2 | 3.2 | 0.00 | 0.00 | 0.00 | 36 | 1007.1 |
| 20260504224017 | 21 | 325 | 3.2 | 9.7 | 0.00 | 0.00 | 0.00 | 35 | 1007.3 |
| 20260504223513 | 22 | 105 | 1.6 | 4.8 | 0.00 | 0.00 | 0.00 | 35 | 1007.4 |
| 20260504223009 | 22 | 344 | 1.6 | 1.6 | 0.00 | 0.00 | 0.00 | 33 | 1007.4 |
| 20260504222506 | 22 | 97 | 3.2 | 4.8 | 0.00 | 0.00 | 0.00 | 34 | 1007.4 |
| 20260504222003 | 22 | 79 | 1.6 | 4.8 | 0.00 | 0.00 | 0.00 | 34 | 1007.6 |
| 20260504221500 | 22 | 184 | 0.0 | 4.8 | 0.00 | 0.00 | 0.00 | 34 | 1007.4 |
| 20260504220957 | 22 | 167 | 3.2 | 4.8 | 0.00 | 0.00 | 0.00 | 35 | 1007.1 |
| 20260504220454 | 22 | 163 | 3.2 | 4.8 | 0.00 | 0.00 | 0.00 | 35 | 1007.4 |
| 20260504215951 | 22 | 93 | 1.6 | 4.8 | 0.00 | 0.00 | 0.00 | 34 | 1007.4 |
| 20260504215447 | 22 | 142 | 4.8 | 6.4 | 0.00 | 0.00 | 0.00 | 35 | 1007.4 |
| 20260504214944 | 22 | 140 | 1.6 | 9.7 | 0.00 | 0.00 | 0.00 | 37 | 1007.6 |
| 20260504214440 | 22 | 118 | 1.6 | 3.2 | 0.00 | 0.00 | 0.00 | 35 | 1007.5 |
| 20260504213937 | 22 | 140 | 4.8 | 9.7 | 0.00 | 0.00 | 0.00 | 35 | 1007.5 |
| 20260504213433 | 22 | 92 | 3.2 | 6.4 | 0.00 | 0.00 | 0.00 | 34 | 1007.7 |
| 20260504212931 | 23 | 356 | 1.6 | 12.9 | 0.00 | 0.00 | 0.00 | 32 | 1007.6 |
| 20260504212426 | 23 | 49 | 0.0 | 3.2 | 0.00 | 0.00 | 0.00 | 32 | 1007.7 |
| 20260504211925 | 23 | 266 | 1.6 | 3.2 | 0.00 | 0.00 | 0.00 | 34 | 1007.8 |
| 20260504211420 | 22 | 195 | 8.0 | 11.3 | 0.00 | 0.00 | 0.00 | 32 | 1007.7 |
| 20260504210918 | 23 | 16 | 1.6 | 6.4 | 0.00 | 0.00 | 0.00 | 31 | 1007.6 |
| 20260504210415 | 23 | 38 | 0.0 | 3.2 | 0.00 | 0.00 | 0.00 | 32 | 1007.4 |
| 20260504205912 | 23 | 54 | 1.6 | 4.8 | 0.00 | 0.00 | 0.00 | 31 | 1007.6 |
| 20260504205410 | 22 | 247 | 1.6 | 3.2 | 0.00 | 0.00 | 0.00 | 32 | 1007.7 |
| 20260504204908 | 23 | 276 | 4.8 | 17.7 | 0.00 | 0.00 | 0.00 | 32 | 1007.5 |
| 20260504204406 | 23 | 36 | 1.6 | 3.2 | 0.00 | 0.00 | 0.00 | 31 | 1007.6 |
| 20260504203905 | 23 | 98 | 1.6 | 6.4 | 0.00 | 0.00 | 0.00 | 32 | 1007.7 |
| 20260504203401 | 23 | 113 | 1.6 | 3.2 | 0.00 | 0.00 | 0.00 | 31 | 1007.7 |
| 20260504202857 | 23 | 186 | 0.0 | 1.6 | 0.00 | 0.00 | 0.00 | 35 | 1007.4 |
| 20260504202354 | 23 | 66 | 1.6 | 6.4 | 0.00 | 0.00 | 0.00 | 32 | 1007.7 |
| 20260504201851 | 23 | 73 | 3.2 | 6.4 | 0.00 | 0.00 | 0.00 | 31 | 1007.7 |
| 20260504201348 | 23 | 349 | 6.4 | 6.4 | 0.00 | 0.00 | 0.00 | 32 | 1007.7 |
| 20260504200846 | 23 | 53 | 3.2 | 3.2 | 0.00 | 0.00 | 0.00 | 34 | 1007.9 |
| 20260504200342 | 23 | 98 | 1.6 | 9.7 | 0.00 | 0.00 | 0.00 | 31 | 1007.9 |
| 20260504195839 | 23 | 182 | 4.8 | 6.4 | 0.00 | 0.00 | 0.00 | 34 | 1007.7 |
| 20260504195334 | 23 | 262 | 4.8 | 6.4 | 0.00 | 0.00 | 0.00 | 30 | 1007.8 |
| 20260504194831 | 23 | 96 | 1.6 | 6.4 | 0.00 | 0.00 | 0.00 | 30 | 1007.8 |
| 20260504194327 | 23 | 162 | 1.6 | 3.2 | 0.00 | 0.00 | 0.00 | 32 | 1007.7 |
| 20260504193823 | 23 | 45 | 1.6 | 4.8 | 0.00 | 0.00 | 0.00 | 29 | 1007.8 |
| 20260504193321 | 23 | 70 | 1.6 | 12.9 | 0.00 | 0.00 | 0.00 | 30 | 1007.9 |
| 20260504192819 | 23 | 149 | 1.6 | 4.8 | 0.00 | 0.00 | 0.00 | 31 | 1007.8 |
| 20260504192317 | 23 | 41 | 3.2 | 4.8 | 0.00 | 0.00 | 0.00 | 32 | 1007.9 |
| 20260504191815 | 23 | 101 | 3.2 | 11.3 | 0.00 | 0.00 | 0.00 | 34 | 1007.8 |
| 20260504191313 | 23 | 194 | 4.8 | 11.3 | 0.00 | 0.00 | 0.00 | 30 | 1008.0 |
| 20260504190808 | 23 | 27 | 3.2 | 4.8 | 0.00 | 0.00 | 0.00 | 34 | 1008.1 |
| 20260504190304 | 23 | 100 | 1.6 | 3.2 | 0.00 | 0.00 | 0.00 | 31 | 1008.4 |
| 20260504185801 | 23 | 31 | 0.0 | 4.8 | 0.00 | 0.00 | 0.00 | 32 | 1008.4 |
| 20260504185258 | 23 | 49 | 1.6 | 11.3 | 0.00 | 0.00 | 0.00 | 34 | 1008.5 |
| 20260504184754 | 23 | 187 | 3.2 | 6.4 | 0.00 | 0.00 | 0.00 | 35 | 1008.5 |
| 20260504184250 | 23 | 212 | 3.2 | 11.3 | 0.00 | 0.00 | 0.00 | 36 | 1008.6 |
| 20260504183746 | 23 | 188 | 3.2 | 6.4 | 0.00 | 0.00 | 0.00 | 31 | 1008.5 |
| 20260504183243 | 23 | 23 | 1.6 | 6.4 | 0.00 | 0.00 | 0.00 | 38 | 1008.5 |
| 20260504182741 | 22 | 21 | 0.0 | 11.3 | 0.00 | 0.00 | 0.00 | 32 | 1008.6 |
| 20260504182238 | 22 | 76 | 3.2 | 9.7 | 0.00 | 0.00 | 0.00 | 34 | 1009.1 |
| 20260504181736 | 22 | 30 | 0.0 | 11.3 | 0.00 | 0.00 | 0.00 | 32 | 1009.0 |
| 20260504181233 | 22 | 12 | 3.2 | 4.8 | 0.00 | 0.00 | 0.00 | 34 | 1008.9 |
| 20260504180732 | 22 | 338 | 3.2 | 9.7 | 0.00 | 0.00 | 0.00 | 33 | 1009.2 |
| 20260504180230 | 22 | 281 | 1.6 | 4.8 | 0.00 | 0.00 | 0.00 | 33 | 1009.2 |
| 20260504175727 | 22 | 164 | 4.8 | 9.7 | 0.00 | 0.00 | 0.00 | 34 | 1009.1 |
| 20260504175224 | 22 | 333 | 1.6 | 16.1 | 0.00 | 0.00 | 0.00 | 31 | 1009.1 |
| 20260504174722 | 22 | 90 | 0.0 | 9.7 | 0.00 | 0.00 | 0.00 | 32 | 1009.3 |
| 20260504174220 | 22 | 107 | 4.8 | 9.7 | 0.00 | 0.00 | 0.00 | 36 | 1009.4 |
| 20260504173715 | 22 | 237 | 3.2 | 9.7 | 0.00 | 0.00 | 0.00 | 33 | 1009.6 |
| 20260504173213 | 22 | 359 | 4.8 | 6.4 | 0.00 | 0.00 | 0.00 | 34 | 1009.5 |
| 20260504172709 | 22 | 120 | 1.6 | 12.9 | 0.00 | 0.00 | 0.00 | 35 | 1009.6 |
| 20260504172206 | 22 | 34 | 3.2 | 6.4 | 0.00 | 0.00 | 0.00 | 32 | 1009.5 |
| 20260504171702 | 22 | 130 | 4.8 | 6.4 | 0.00 | 0.00 | 0.00 | 32 | 1009.9 |
| 20260504171159 | 22 | 108 | 3.2 | 9.7 | 0.00 | 0.00 | 0.00 | 34 | 1009.8 |
| 20260504170656 | 21 | 187 | 3.2 | 6.4 | 0.00 | 0.00 | 0.00 | 36 | 1009.9 |
| 20260504170154 | 21 | 5 | 1.6 | 11.3 | 0.00 | 0.00 | 0.00 | 32 | 1010.0 |
| 20260504160112 | 21 | 98 | 1.6 | 9.7 | 0.00 | 0.00 | 0.00 | 37 | 1010.9 |
| 20260504151039 | 20 | 328 | 3.2 | 9.7 | 0.00 | 0.00 | 0.00 | 38 | 1011.3 |
| 20260504150536 | 20 | 291 | 3.2 | 11.3 | 0.00 | 0.00 | 0.00 | 37 | 1011.3 |
| 20260504141002 | 18 | 123 | 1.6 | 4.8 | 0.00 | 0.00 | 0.00 | 46 | 1011.2 |
| 20260504140459 | 18 | 93 | 4.8 | 4.8 | 0.00 | 0.00 | 0.00 | 47 | 1011.5 |
| 20260504130423 | 16 | 217 | 3.2 | 9.7 | 0.00 | 0.00 | 0.00 | 54 | 1011.9 |
| 20260504110310 | 8 | 57 | 0.0 | 1.6 | 0.00 | 0.00 | 0.00 | 79 | 1012.5 |
| 20260504100228 | 7 | 66 | 0.0 | 1.6 | 0.00 | 0.00 | 0.00 | 75 | 1012.6 |